Date,TemperatureHighF,TemperatureAvgF,TemperatureLowF,DewpointHighF,DewpointAvgF,DewpointLowF,HumidityHigh,HumidityAvg,HumidityLow,PressureMaxIn,PressureMinIn,WindSpeedMaxMPH,WindSpeedAvgMPH,GustSpeedMaxMPH,PrecipitationSumIn
2013-1-1,40,38,36,37,36,33,94,90,83,30.49,30.35,5,2,10,0.00
2013-1-2,43,38,35,37,35,32,91,86,75,30.35,30.18,6,3,12,0.00
2013-1-3,41,38,31,36,33,29,96,85,73,30.18,30.06,4,2,9,0.00
2013-1-4,40,40,40,34,34,34,79,79,79,30.07,30.07,2,2,7,0.00
2013-1-5,40,40,40,34,34,34,79,79,79,30.07,30.07,2,2,7,0.00
2013-1-6,40,40,40,34,34,34,79,79,79,30.07,30.07,2,2,7,0.00
2013-1-7,40,40,40,34,34,34,79,79,79,30.07,30.07,2,2,7,0.00
2013-1-8,48,42,40,47,40,34,98,90,79,30.07,29.60,6,2,18,1.74
2013-1-9,46,42,36,44,39,33,94,88,75,29.89,29.62,7,4,18,0.50
2013-1-10,43,36,31,35,32,29,96,84,61,30.12,29.89,5,1,12,0.00
2013-1-11,40,34,27,32,27,23,91,77,53,30.30,30.12,3,1,9,0.00
2013-1-12,37,30,25,31,26,23,93,86,70,30.42,30.29,4,1,10,0.00
2013-1-13,38,32,26,33,29,24,95,89,80,30.46,30.41,2,0,4,0.01
2013-1-14,39,37,35,37,35,32,95,92,89,30.54,30.42,2,0,5,0.04
2013-1-15,42,39,37,39,37,36,96,92,80,30.68,30.55,2,0,7,0.03
2013-1-16,40,39,37,36,35,34,90,87,82,30.66,30.51,3,1,8,0.01
2013-1-17,44,38,34,39,35,32,95,90,80,30.52,30.26,3,1,8,0.00
2013-1-18,42,39,36,38,37,35,97,92,84,30.32,30.24,4,1,9,0.00
2013-1-19,43,39,38,39,37,35,94,90,85,30.37,30.32,4,2,12,0.00
2013-1-20,44,37,34,39,35,32,97,94,81,30.37,30.25,5,3,11,0.01
2013-1-21,40,36,34,38,35,33,98,96,90,30.25,30.11,5,2,11,0.01
2013-1-22,40,38,36,37,36,34,97,92,86,30.11,29.88,4,1,8,0.00
2013-1-23,44,41,38,42,39,36,96,92,89,30.07,29.79,8,2,19,0.11
2013-1-24,43,41,32,41,38,31,97,92,87,30.16,29.94,5,1,11,0.12
2013-1-25,49,41,35,45,39,34,98,94,82,30.02,29.85,2,0,7,0.04
2013-1-26,46,42,38,43,40,36,97,93,83,29.98,29.80,3,1,7,0.08
2013-1-27,43,39,34,40,38,33,98,94,89,29.99,29.93,5,2,13,0.02
2013-1-28,45,40,34,41,37,33,97,90,82,30.02,29.94,6,2,15,0.01
2013-1-29,48,45,41,45,42,39,94,89,83,30.26,30.02,6,2,14,0.02
2013-1-30,48,45,42,45,43,41,97,94,88,30.33,30.26,3,1,10,0.05
2013-1-31,48,45,39,47,44,38,98,96,93,30.31,30.24,4,1,11,0.07
2013-2-1,47,43,38,45,41,37,97,94,90,30.40,30.30,4,1,10,0.01
2013-2-2,47,43,40,43,40,38,96,91,84,30.38,30.22,4,2,11,0.00
2013-2-3,44,44,44,41,41,41,89,89,89,30.22,30.22,0,0,2,0.00
2013-2-4,44,44,44,41,41,41,89,89,89,30.22,30.22,0,0,2,0.00
2013-2-5,49,45,42,45,42,40,97,89,83,30.22,29.72,7,2,18,0.17
2013-2-6,47,44,40,44,42,38,95,89,79,29.95,29.65,10,3,23,0.07
2013-2-7,49,43,33,43,38,31,94,82,61,30.17,29.64,11,2,30,0.02
2013-2-8,48,38,29,40,34,28,97,88,69,30.28,30.17,3,0,7,0.01
2013-2-9,45,40,34,41,38,33,97,91,80,30.32,30.23,2,0,7,0.00
2013-2-10,45,42,38,41,39,36,96,89,78,30.35,30.29,2,0,6,0.00
2013-2-11,43,42,40,40,40,38,95,93,89,30.31,30.28,0,0,2,0.00
2013-2-12,50,46,42,46,43,40,95,90,81,30.35,30.18,10,3,24,0.04
2013-2-13,50,46,43,43,41,38,91,82,70,30.45,30.23,7,3,14,0.02
2013-2-14,46,44,42,44,42,39,97,94,82,30.54,30.44,2,1,7,0.18
2013-2-15,49,45,42,45,43,40,97,93,80,30.55,30.15,5,2,10,0.03
2013-2-16,51,45,41,44,41,39,96,85,69,30.15,30.07,8,4,22,0.01
2013-2-17,47,42,36,41,38,34,95,87,71,30.19,30.07,4,1,12,0.00
2013-2-18,45,41,37,41,39,36,96,91,82,30.07,29.70,7,2,16,0.12
2013-2-19,49,42,33,41,38,31,94,83,62,29.97,29.70,6,2,15,0.01
2013-2-20,45,38,30,41,36,29,97,91,83,29.99,29.95,5,1,11,0.00
2013-2-21,46,43,40,41,39,37,92,88,80,30.00,29.93,7,3,19,0.01
2013-2-22,49,42,38,45,39,35,96,90,73,29.98,29.57,14,4,32,0.17
2013-2-23,51,44,39,39,37,33,90,76,55,30.30,29.81,7,4,18,0.07
2013-2-24,46,44,41,42,40,36,91,86,79,30.32,29.80,5,3,14,0.02
2013-2-25,49,44,38,42,38,34,95,80,59,30.24,29.77,13,6,32,0.00
2013-2-26,45,42,39,40,38,35,92,84,71,30.29,30.08,6,2,13,0.28
2013-2-27,48,42,38,42,39,36,96,87,75,30.27,30.14,5,1,12,0.02
2013-2-28,47,44,41,46,42,38,97,94,88,30.25,30.14,5,2,11,0.38
2013-3-1,58,52,47,51,49,46,97,90,77,30.23,30.18,4,2,10,0.63
2013-3-2,52,47,39,50,44,34,98,89,74,30.19,30.01,9,3,19,0.56
2013-3-3,50,40,31,38,33,29,94,77,54,30.28,30.15,5,1,11,0.01
2013-3-4,47,41,32,39,36,30,95,82,68,30.28,29.94,7,3,15,0.00
2013-3-5,47,44,40,40,36,33,94,76,60,29.94,29.73,5,3,13,0.09
2013-3-6,44,42,40,41,40,38,96,93,88,29.84,29.60,5,2,14,0.23
2013-3-7,48,43,35,44,41,34,97,93,80,30.09,29.84,3,1,8,0.07
2013-3-8,50,42,34,42,38,33,97,87,67,30.21,30.07,4,1,9,0.01
2013-3-9,51,41,30,44,37,29,97,86,69,30.46,30.21,5,1,11,0.00
2013-3-10,47,43,39,43,40,36,94,89,83,30.46,30.39,3,1,8,0.02
2013-3-11,50,42,34,43,39,33,97,90,77,30.41,30.09,4,1,9,0.14
2013-3-12,54,48,43,51,47,42,97,95,88,30.09,29.93,5,2,12,0.72
2013-3-13,51,49,48,50,48,47,97,96,94,30.11,30.00,3,1,8,0.29
2013-3-14,52,48,46,50,47,45,98,96,89,30.09,29.93,4,1,9,0.18
2013-3-15,56,48,43,50,46,42,98,93,78,30.16,30.08,4,1,9,0.11
2013-3-16,51,46,40,45,40,34,93,82,60,30.09,29.83,8,4,25,0.04
2013-3-17,49,42,36,37,34,32,88,72,53,30.12,29.91,9,4,22,0.01
2013-3-18,52,44,35,39,34,26,92,70,42,30.21,30.03,7,4,22,0.07
2013-3-19,47,42,33,42,36,30,90,81,62,30.20,29.49,9,4,24,0.03
2013-3-20,51,45,38,47,41,33,95,85,65,29.93,29.24,12,7,32,0.12
2013-3-21,47,41,34,37,34,30,93,78,66,30.18,29.93,9,4,22,0.04
2013-3-22,46,38,29,36,30,27,93,76,50,30.35,30.17,4,1,11,0.01
2013-3-23,49,40,32,38,32,27,95,76,46,30.37,30.28,5,1,12,0.00
2013-3-24,49,41,33,37,33,31,92,74,52,30.28,30.11,5,2,11,0.00
2013-3-25,56,48,39,39,35,31,86,63,40,30.11,29.93,4,2,10,0.00
2013-3-26,56,48,42,43,39,35,84,71,58,29.99,29.94,3,1,8,0.00
2013-3-27,57,49,40,46,42,38,93,79,55,29.97,29.92,5,1,11,0.00
2013-3-28,59,48,39,48,43,37,95,82,63,30.11,29.97,4,1,10,0.00
2013-3-29,61,48,37,49,43,35,97,84,60,30.24,30.11,3,1,7,0.00
2013-3-30,61,50,39,49,42,-100,96,80,55,30.26,30.08,6,2,12,0.00
2013-3-31,65,52,40,46,42,38,93,71,43,30.08,29.90,6,2,12,0.00
2013-4-1,59,53,40,50,47,38,95,79,71,30.08,29.98,7,3,15,0.00
2013-4-2,56,49,42,46,44,40,94,82,66,30.17,30.08,5,2,13,0.00
2013-4-3,58,52,47,48,46,44,89,79,62,30.16,29.94,4,1,10,0.00
2013-4-4,52,51,49,49,47,43,96,87,74,29.94,29.54,5,2,11,0.24
2013-4-5,55,51,48,51,48,45,97,91,80,29.79,29.59,7,2,16,0.06
2013-4-6,58,50,46,47,43,38,93,78,48,29.85,29.57,9,4,20,0.05
2013-4-7,53,46,43,47,43,41,95,90,75,29.83,29.55,5,3,14,0.33
2013-4-8,56,48,37,46,42,36,97,82,63,30.21,29.83,4,2,10,0.01
2013-4-9,50,47,44,46,44,40,92,87,82,30.30,30.09,4,1,9,0.03
2013-4-10,54,49,46,49,45,41,96,86,73,30.19,29.84,11,5,27,0.34
2013-4-11,54,47,42,42,39,34,87,74,53,30.27,30.14,7,3,15,0.01
2013-4-12,44,42,38,42,38,33,95,87,76,30.14,29.62,8,2,21,0.18
2013-4-13,49,42,36,43,38,33,94,87,75,29.95,29.69,8,3,22,0.28
2013-4-14,52,42,34,43,37,33,97,83,61,29.98,29.90,4,1,9,0.01
2013-4-15,56,45,35,45,40,33,96,83,61,30.15,29.91,4,1,10,0.15
2013-4-16,59,48,36,45,36,24,96,68,26,30.36,30.15,5,2,11,0.01
2013-4-17,60,49,39,42,36,30,90,65,32,30.39,30.35,7,3,17,0.00
2013-4-18,49,46,43,47,44,38,95,90,69,30.41,30.14,4,1,12,0.06
2013-4-19,58,50,47,53,48,45,97,91,75,30.14,30.03,7,2,19,0.19
2013-4-20,58,50,47,46,44,41,87,79,62,30.22,30.13,7,4,18,0.01
2013-4-21,54,46,38,44,41,36,93,83,69,30.37,30.19,5,2,13,0.11
2013-4-22,60,48,35,44,34,21,95,65,23,30.54,30.37,6,2,14,0.01
2013-4-23,59,49,35,43,38,32,89,68,43,30.41,30.25,5,1,10,0.00
2013-4-24,65,51,38,44,40,35,92,69,40,30.31,30.02,4,1,9,0.00
2013-4-25,66,54,42,48,44,40,93,70,44,30.09,30.01,5,2,12,0.00
2013-4-26,60,50,41,47,42,37,93,77,43,30.22,30.08,7,2,16,0.00
2013-4-27,57,53,51,50,45,38,88,74,49,30.15,30.08,6,3,16,0.00
2013-4-28,58,51,46,45,42,38,91,72,51,30.13,29.88,9,5,22,0.12
2013-4-29,55,48,42,45,37,32,92,67,45,30.12,29.88,9,5,26,0.12
2013-4-30,55,48,39,39,34,30,87,61,44,30.40,30.12,5,1,12,0.00
2013-5-1,60,48,33,41,35,30,91,63,36,30.57,30.40,3,1,9,0.00
2013-5-2,61,52,40,43,40,36,88,64,42,30.53,30.37,4,1,10,0.00
2013-5-3,69,55,41,51,44,38,92,71,44,30.39,30.22,5,1,11,0.00
2013-5-4,77,62,46,50,46,39,90,58,26,30.24,29.98,6,2,15,0.00
2013-5-5,83,67,53,52,47,44,78,51,29,29.98,29.75,6,2,16,0.00
2013-5-6,79,65,51,52,49,45,87,59,34,29.84,29.73,4,1,10,0.00
2013-5-7,74,59,49,54,50,46,92,73,40,29.93,29.76,4,2,12,0.00
2013-5-8,67,56,46,53,50,44,95,81,61,30.11,29.93,6,2,17,0.00
2013-5-9,70,58,46,54,50,45,96,76,53,30.19,30.09,4,1,9,0.00
2013-5-10,70,58,46,56,48,-100,95,75,52,30.18,30.09,4,1,8,0.00
2013-5-11,67,58,51,56,50,-100,92,77,52,30.14,29.99,4,1,8,0.06
2013-5-12,65,59,55,60,56,52,97,92,81,30.04,29.98,3,2,8,0.14
2013-5-13,60,60,60,57,57,57,91,91,91,30.00,30.00,2,2,4,0.01
2013-5-14,60,57,52,57,49,43,91,74,57,30.20,30.00,6,3,15,0.14
2013-5-15,61,54,49,52,48,46,94,81,61,30.10,29.98,4,1,9,0.04
2013-5-16,65,53,49,55,36,-100,95,84,63,30.00,29.88,3,1,9,0.05
2013-5-17,58,54,51,54,48,-100,95,89,79,30.01,29.90,5,1,13,0.08
2013-5-18,53,52,51,50,49,48,94,91,88,30.08,30.01,2,0,6,0.11
2013-5-20,65,59,50,51,48,44,93,69,47,30.25,29.91,3,2,10,0.13
2013-5-21,56,50,47,48,46,44,95,85,73,29.91,29.75,5,2,14,0.27
2013-5-22,61,52,44,49,45,41,94,77,54,29.93,29.81,4,1,11,0.23
2013-5-23,59,52,47,48,46,44,95,81,62,29.96,29.88,8,3,17,0.26
2013-5-24,62,54,44,50,46,42,94,76,56,30.00,29.94,5,2,14,0.00
2013-5-25,62,55,51,50,48,45,91,77,59,30.00,29.96,4,1,10,0.02
2013-5-26,60,54,49,53,51,47,96,89,75,29.97,29.91,3,0,9,0.14
2013-5-27,56,54,51,53,52,49,95,92,88,29.91,29.65,5,2,14,0.19
2013-5-28,59,54,51,52,51,50,96,90,75,29.82,29.70,3,0,7,0.03
2013-5-29,56,52,50,52,49,47,95,89,71,29.92,29.67,5,1,13,0.14
2013-5-30,59,54,50,51,48,45,89,80,68,30.20,29.92,4,2,12,0.06
2013-5-31,64,56,49,51,47,43,89,72,50,30.32,30.20,5,1,11,0.00
2013-6-1,66,58,51,52,49,44,92,72,46,30.23,30.06,3,1,9,0.00
2013-6-2,67,60,53,53,51,49,90,73,57,30.07,30.01,4,2,13,0.00
2013-6-3,69,60,48,54,51,46,96,75,57,30.10,30.03,4,1,11,0.00
2013-6-4,75,62,48,57,51,46,96,71,36,30.13,30.01,4,1,9,0.00
2013-6-5,71,63,53,58,54,47,87,73,62,30.08,29.99,4,1,12,0.00
2013-6-6,77,63,52,57,51,39,95,68,26,30.04,29.96,6,2,14,0.00
2013-6-7,70,61,54,55,49,43,87,66,51,30.10,29.97,8,3,19,0.03
2013-6-8,67,58,49,52,49,44,87,73,57,30.14,30.09,6,2,13,0.01
2013-6-9,67,58,50,52,47,43,89,68,43,30.09,30.00,7,3,17,0.00
2013-6-10,67,58,45,52,47,42,91,67,46,30.02,29.85,6,2,16,0.00
2013-6-11,65,58,52,49,47,44,82,67,51,30.06,29.89,6,3,18,0.00
2013-6-12,65,56,50,52,50,46,92,78,59,30.11,30.06,3,1,10,0.00
2013-6-13,69,59,51,53,50,45,93,72,43,30.16,30.11,7,2,17,0.00
2013-6-14,62,58,52,52,50,47,87,74,66,30.18,30.06,6,3,16,0.00
2013-6-15,71,60,49,55,52,46,93,74,53,30.06,29.91,5,1,11,0.00
2013-6-16,67,62,50,56,54,47,94,75,65,30.02,29.94,3,1,7,0.00
2013-6-17,72,66,58,56,54,51,83,64,51,30.02,29.87,4,3,13,0.02
2013-6-18,69,61,54,56,52,48,92,74,52,29.93,29.88,4,1,10,0.02
2013-6-19,68,59,49,57,50,46,93,74,51,29.96,29.87,6,2,16,0.03
2013-6-20,58,57,55,51,50,49,83,79,75,30.02,29.89,6,3,18,0.06
2013-6-21,64,64,64,54,54,54,69,69,69,30.11,30.11,3,3,9,0.00
2013-6-22,64,64,64,54,54,54,69,69,69,30.11,30.11,3,3,9,0.00
2013-6-23,64,64,64,54,54,54,69,69,69,30.11,30.11,3,3,9,0.00
2013-6-24,65,62,58,56,55,53,90,78,69,30.11,29.54,6,2,14,0.08
2013-6-25,69,60,55,58,55,52,95,84,66,29.78,29.62,4,1,9,0.05
2013-6-26,69,61,54,60,56,52,95,84,67,30.04,29.76,4,1,10,0.02
2013-6-27,68,62,57,62,58,54,95,89,79,30.19,30.01,5,1,11,0.13
2013-6-28,75,66,56,63,60,55,97,84,64,30.19,30.05,4,1,9,0.01
2013-6-29,81,70,61,65,61,57,93,75,48,30.07,29.96,4,1,10,0.00
2013-6-30,87,72,56,66,61,53,93,69,47,29.99,29.84,4,1,10,0.00
2013-7-1,87,73,62,66,61,56,88,68,41,29.97,29.86,5,2,14,0.00
2013-7-2,81,68,57,60,56,51,89,67,41,30.07,29.97,4,1,9,0.00
2013-7-3,79,64,51,54,50,42,88,63,27,30.12,30.00,5,2,13,0.00
2013-7-4,74,65,56,55,53,50,86,66,45,30.06,29.99,5,2,12,0.00
2013-7-5,59,56,52,54,52,49,94,89,80,30.00,29.94,0,0,2,0.00
2013-7-6,80,64,52,57,54,50,94,73,43,29.97,29.84,4,1,10,0.00
2013-7-7,73,65,54,58,55,51,90,71,52,29.92,29.85,4,1,12,0.00
2013-7-8,72,64,54,58,56,52,92,76,58,30.07,29.91,5,1,11,0.00
2013-7-9,82,67,54,60,54,47,94,68,31,30.09,29.95,6,1,14,0.00